Bigfork, MN

1:01 AM CDT on July 24, 2017 (GMT -0500)
Bigfork Municipal

Weather History for KFOZ - February, 2012

Change the Weather History Date:

Thursday, February 23, 2012

  Actual Average (KGPZ) Record (KGPZ)
Temperature  
Mean Temperature 22 °F -  
Max Temperature 28 °F 31 °F 54 °F (1958)
Min Temperature 17 °F 8 °F -26 °F (1923)
Degree Days  
Heating Degree Days 42    
Moisture  
Dew Point 16 °F    
Average Humidity 74    
Maximum Humidity 93    
Minimum Humidity 59    
Precipitation  
Precipitation 0.00 in - - ()
Sea Level Pressure  
Sea Level Pressure 29.54 in    
Wind  
Wind Speed 0 mph (NE)    
Max Wind Speed 5 mph    
Max Gust Speed -    
Visibility 10 miles    
Events Snow    
Averages and records for this station are not official NWS values.
T = Trace of Precipitation, MM = Missing Value Source: NWS Daily Summary

Daily Weather History Graph

Daily Weather History Graph

Search for Another Location

Airport or City:

Trip Planner

Search our weather history database for the weather conditions in past years. The results will help you decide how hot, cold, wet, or windy it might be!

Date:

Astronomy

Feb. 23, 2012 Rise Set
Actual Time 7:07 AM CST 5:49 PM CST
Civil Twilight 6:36 AM CST 6:20 PM CST
Nautical Twilight 6:00 AM CST 6:56 PM CST
Astronomical Twilight 5:24 AM CST 7:32 PM CST
Moon 7:22 AM CST (2/23) 8:10 PM CST (2/23)
Length of Visible Light 11h 44m
Length of Day
10h 42m
Waxing Crescent, 3% of the Moon is Illuminated
Feb 23
Waxing Crescent
Feb 29
First Quarter
Mar 8
Full
Mar 14
Last Quarter
Mar 22
New

Hourly Weather History & Observations

Time (CST) Temp. Windchill Dew Point Humidity Pressure Visibility Wind Dir Wind Speed Gust Speed Precip Events Conditions
12:14 AM 21.2 °F - 17.6 °F 86% 29.43 in 10.0 mi Calm Calm - N/A   Overcast
12:34 AM 21.2 °F - 17.6 °F 86% 29.43 in 10.0 mi Calm Calm - N/A   Overcast
12:54 AM 21.2 °F - 17.6 °F 86% 29.44 in 10.0 mi Calm Calm - N/A   Overcast
1:14 AM 21.2 °F - 17.6 °F 86% 29.44 in 10.0 mi Calm Calm - N/A   Overcast
1:34 AM 21.2 °F - 17.6 °F 86% 29.44 in 10.0 mi Calm Calm - N/A   Overcast
1:54 AM 21.2 °F - 17.6 °F 86% 29.44 in 10.0 mi Calm Calm - N/A   Overcast
2:14 AM 21.2 °F 16.4 °F 17.6 °F 86% 29.45 in 10.0 mi NNE 3.5 mph - N/A   Overcast
2:34 AM 21.2 °F - 17.6 °F 86% 29.45 in 10.0 mi Calm Calm - N/A   Overcast
2:54 AM 21.2 °F - 17.6 °F 86% 29.46 in 10.0 mi Calm Calm - N/A Snow Light Snow
3:14 AM 19.4 °F - 17.6 °F 93% 29.46 in 7.0 mi Calm Calm - N/A Snow Light Snow
3:34 AM 19.4 °F - 17.6 °F 93% 29.46 in 10.0 mi Calm Calm - N/A   Overcast
3:54 AM 19.4 °F - 15.8 °F 86% 29.46 in 10.0 mi Calm Calm - N/A   Overcast
4:14 AM 19.4 °F - 15.8 °F 86% 29.47 in 10.0 mi Calm Calm - N/A   Overcast
4:34 AM 19.4 °F - 15.8 °F 86% 29.48 in 10.0 mi Calm Calm - N/A   Overcast
4:54 AM 19.4 °F - 15.8 °F 86% 29.49 in 10.0 mi Calm Calm - N/A   Overcast
5:14 AM 19.4 °F - 15.8 °F 86% 29.48 in 10.0 mi Calm Calm - N/A   Overcast
5:34 AM 19.4 °F - 15.8 °F 86% 29.49 in 10.0 mi Calm Calm - N/A   Overcast
5:56 AM 19.4 °F - 15.8 °F 86% 29.48 in 10.0 mi Calm Calm - N/A   Overcast
6:17 AM 21.2 °F - 14.0 °F 74% 29.49 in 10.0 mi Calm Calm - N/A   Overcast
6:34 AM 19.4 °F - 15.8 °F 86% 29.49 in 10.0 mi Calm Calm - N/A   Overcast
6:55 AM 19.4 °F - 15.8 °F 86% 29.49 in 10.0 mi Calm Calm - N/A   Overcast
7:14 AM 17.6 °F - 15.8 °F 93% 29.51 in 10.0 mi Calm Calm - N/A   Overcast
7:34 AM 19.4 °F - 15.8 °F 86% 29.51 in 10.0 mi Calm Calm - N/A   Overcast
7:54 AM 19.4 °F - 14.0 °F 80% 29.52 in 7.0 mi Calm Calm - N/A   Overcast
8:14 AM 19.4 °F - 15.8 °F 86% 29.52 in 10.0 mi Calm Calm - N/A   Overcast
8:34 AM 21.2 °F - 14.0 °F 74% 29.52 in 10.0 mi Calm Calm - N/A   Overcast
8:54 AM 21.2 °F - 12.2 °F 68% 29.53 in 10.0 mi Calm Calm - N/A   Overcast
9:14 AM 21.2 °F - 12.2 °F 68% 29.54 in 10.0 mi Calm Calm - N/A   Overcast
9:34 AM 23.0 °F 18.4 °F 12.2 °F 63% 29.55 in 10.0 mi NNE 3.5 mph - N/A   Overcast
9:54 AM 23.0 °F - 12.2 °F 63% 29.56 in 10.0 mi Calm Calm - N/A   Overcast
10:14 AM 23.0 °F - 14.0 °F 68% 29.57 in 10.0 mi Calm Calm - N/A   Overcast
10:34 AM 23.0 °F - 14.0 °F 68% 29.58 in 10.0 mi Calm Calm - N/A   Overcast
10:58 AM 24.8 °F - 14.0 °F 64% 29.59 in 10.0 mi Calm Calm - N/A   Overcast
11:14 AM 24.8 °F - 14.0 °F 64% 29.60 in 10.0 mi Calm Calm - N/A   Overcast
11:34 AM 24.8 °F - 14.0 °F 64% 29.61 in 10.0 mi Calm Calm - N/A   Overcast
11:54 AM 24.8 °F - 14.0 °F 64% 29.61 in 10.0 mi Calm Calm - N/A   Overcast
12:14 PM 24.8 °F 20.5 °F 14.0 °F 64% 29.61 in 10.0 mi West 3.5 mph - N/A   Overcast
12:34 PM 24.8 °F - 14.0 °F 64% 29.61 in 10.0 mi Calm Calm - N/A   Overcast
12:54 PM 24.8 °F - 15.8 °F 69% 29.61 in 10.0 mi Calm Calm - N/A   Overcast
1:14 PM 26.6 °F 22.6 °F 15.8 °F 64% 29.61 in 10.0 mi NNE 3.5 mph - N/A   Overcast
1:34 PM 26.6 °F 21.2 °F 15.8 °F 64% 29.61 in 10.0 mi North 4.6 mph - N/A   Overcast
1:54 PM 28.4 °F - 15.8 °F 59% 29.61 in 10.0 mi Calm Calm - N/A   Overcast
2:14 PM 26.6 °F - 15.8 °F 64% 29.60 in 10.0 mi Calm Calm - N/A   Scattered Clouds
2:34 PM 28.4 °F - 15.8 °F 59% 29.60 in 10.0 mi Calm Calm - N/A   Clear
2:55 PM 28.4 °F - 15.8 °F 59% 29.60 in 10.0 mi Calm Calm - N/A   Clear
3:14 PM 28.4 °F 24.6 °F 15.8 °F 59% 29.61 in 10.0 mi ESE 3.5 mph - N/A   Clear
3:54 PM 28.4 °F - 15.8 °F 59% 29.62 in 10.0 mi Calm Calm - N/A   Clear
4:15 PM 26.6 °F - 15.8 °F 64% 29.62 in 10.0 mi Calm Calm - N/A   Clear
4:34 PM 26.6 °F - 15.8 °F 64% 29.63 in 10.0 mi Calm Calm - N/A   Scattered Clouds
4:55 PM 26.6 °F 22.6 °F 15.8 °F 64% 29.63 in 10.0 mi East 3.5 mph - N/A   Mostly Cloudy
5:14 PM 26.6 °F - 15.8 °F 64% 29.63 in 10.0 mi Calm Calm - N/A   Overcast
5:34 PM 26.6 °F - 15.8 °F 64% 29.64 in 10.0 mi Calm Calm - N/A   Overcast
5:54 PM 26.6 °F 22.6 °F 15.8 °F 64% 29.63 in 10.0 mi East 3.5 mph - N/A   Overcast
6:14 PM 26.6 °F 22.6 °F 15.8 °F 64% 29.64 in 10.0 mi East 3.5 mph - N/A   Overcast
6:34 PM 26.6 °F 21.2 °F 17.6 °F 69% 29.64 in 10.0 mi East 4.6 mph - N/A   Overcast
6:54 PM 26.6 °F 21.2 °F 17.6 °F 69% 29.65 in 10.0 mi ESE 4.6 mph - N/A   Overcast
7:14 PM 26.6 °F 21.2 °F 17.6 °F 69% 29.65 in 10.0 mi ESE 4.6 mph - N/A   Overcast
7:34 PM 24.8 °F - 17.6 °F 74% 29.66 in 10.0 mi Calm Calm - N/A   Overcast
7:54 PM 24.8 °F - 17.6 °F 74% 29.67 in 10.0 mi Calm Calm - N/A   Overcast
8:14 PM 24.8 °F - 17.6 °F 74% 29.66 in 10.0 mi Calm Calm - N/A   Overcast
8:34 PM 24.8 °F - 17.6 °F 74% 29.66 in 10.0 mi Calm Calm - N/A   Overcast
8:54 PM 24.8 °F - 17.6 °F 74% 29.67 in 10.0 mi Calm Calm - N/A   Overcast
9:34 PM 24.8 °F - 17.6 °F 74% 29.66 in 10.0 mi Calm Calm - N/A   Overcast
9:54 PM 24.8 °F - 17.6 °F 74% 29.66 in 10.0 mi Calm Calm - N/A   Overcast
10:34 PM 24.8 °F - 17.6 °F 74% 29.67 in 7.0 mi Calm Calm - N/A Snow Light Snow
10:54 PM 24.8 °F - 17.6 °F 74% 29.66 in 10.0 mi Calm Calm - N/A Snow Light Snow
11:14 PM 24.8 °F - 17.6 °F 74% 29.67 in 10.0 mi Calm Calm - N/A Snow Light Snow
11:34 PM 24.8 °F - 17.6 °F 74% 29.67 in 10.0 mi Calm Calm - N/A Snow Light Snow
11:54 PM 24.8 °F - 17.6 °F 74% 29.67 in 5.0 mi Calm Calm - N/A Snow Light Snow